#timestamp,LO_Frequency,Hit,StdDev 
1552093215.7,286046998.9,N
1552093235.5,286046999.4,N
1552093255.4,286046996.9,N
1552093275.2,286046998.2,N
1552093295.0,286046998.6,N
1552093295.9,286046998.6,N
1552093315.8,286046998.6,N
1552093335.6,286047001.1,N
1552093355.5,286046998.3,N
1552093375.3,286046999.1,N
1552093395.1,286046996.9,N
1552093415.9,286046997.0,N
1552093435.7,286046999.3,N
1552093455.5,286046999.1,N
1552093475.4,286046998.2,N
1552093495.2,286046999.9,N
1552093515.1,286046998.1,N
1552093516.0,286046998.1,N
1552093535.8,286046998.5,N
1552093555.6,286046998.5,N
1552093575.5,286046998.5,N
1552093595.3,286046998.7,N
1552093615.1,286046998.5,N
1552093635.9,286046998.9,N
1552093655.7,286046999.6,N
1552093675.6,286046999.1,N
1552093695.4,286046998.7,N
1552093715.2,286046996.6,Y
1552093735.1,286046999.9,P
1552093736.0,286046999.9,N
1552093755.8,286047002.6,P
1552093775.7,286047002.4,N
1552093795.5,286047002.8,N
1552093815.3,286047001.4,N
1552093835.2,286047001.8,N
1552093855.0,286047003.9,N
1552093855.9,286047003.9,N
1552093875.7,286047001.9,N
1552093895.6,286047002.3,N
1552093915.4,286047000.8,N
1552093935.3,286046999.9,N
1552093955.1,286047002.1,N
1552093956.0,286047002.1,N
1552093975.8,286047007.6,Y
1552093995.7,286047007.1,P
1552094015.5,286047004.7,N
1552094035.4,286047003.5,N
1552094055.2,286047001.6,N
1552094075.0,286047001.3,N
1552094075.9,286047001.3,N
1552094095.8,286047002.4,N
1552094115.6,286047000.2,N
1552094135.4,286047002.2,N
1552094155.3,286047001.9,N
1552094175.1,286047000.2,N
1552094195.9,286046998.5,N
1552094215.7,286046998.3,N
1552094235.5,286046999.0,N
1552094255.4,286046998.4,N
1552094275.2,286047000.7,N
1552094295.1,286046998.7,N
1552094296.0,286046998.7,N
1552094315.8,286046999.6,N
1552094335.6,286046999.4,N
1552094355.5,286046999.5,N
1552094375.3,286046999.5,N
1552094395.1,286046996.8,N
1552094415.9,286046999.0,N
1552094435.7,286047002.7,N
1552094455.6,286046998.5,N
1552094475.4,286046999.1,N
1552094495.2,286046997.9,N
1552094515.1,286046996.2,N
1552094516.0,286046996.2,N
1552094535.8,286046993.5,N
1552094555.6,286046993.8,N
1552094575.5,286046994.7,N
1552094595.3,286046994.4,N
1552094615.2,286046993.5,N
1552094635.9,286046994.1,N
1552094655.7,286046994.5,N
1552094675.6,286046994.6,N
1552094695.4,286046994.8,N
1552094715.3,286046992.2,Y
1552094735.1,286046995.6,P
1552094736.0,286046995.6,P
1552094755.8,286046994.3,P
1552094775.7,286046994.3,Y
1552094795.5,286046997.2,P
1552094815.4,286046996.7,P
1552094835.2,286046998.9,N
1552094855.0,286046997.1,N
1552094855.9,286046997.1,N
1552094875.8,286046996.9,Y
1552094895.6,286046998.7,P
1552094915.5,286046999.6,N
1552094935.3,286046999.0,N
1552094955.1,286046998.5,N
1552094975.9,286046998.3,N
1552094995.7,286046999.9,N
1552095015.5,286046998.9,N
1552095035.4,286046996.9,Y
1552095055.2,286046999.3,P
1552095075.1,286046999.0,P
1552095076.0,286046999.0,P
1552095095.8,286046998.4,Y
1552095115.6,286047001.2,P
1552095135.5,286047001.0,N
1552095155.3,286046998.2,N
1552095175.2,286046999.3,N
1552095195.9,286047001.2,N
1552095215.7,286046999.9,N
1552095235.6,286047000.4,N
1552095255.4,286046998.2,N
1552095275.2,286047000.9,N
1552095295.1,286047000.6,N
1552095296.0,286047000.6,N
1552095315.8,286047000.4,N
1552095335.7,286047000.0,N
1552095355.5,286046998.3,N
1552095375.3,286047002.1,N
1552095395.2,286047000.1,N
1552095415.0,286047001.2,N
1552095415.9,286047001.2,N
1552095435.8,286047001.1,N
1552095455.6,286047000.3,N
1552095475.4,286047000.8,N
1552095495.3,286046998.5,N
1552095515.1,286047000.1,N
1552095535.8,286047001.1,N
1552095555.7,286046998.2,N
1552095575.5,286046999.5,N
1552095595.4,286046997.1,N
1552095615.2,286046997.5,N
1552095635.0,286046997.4,N
1552095635.9,286046997.4,N
1552095655.8,286046997.7,N
1552095675.6,286046999.6,N
1552095695.4,286046997.0,N
1552095715.3,286046999.1,N
1552095735.1,286046996.7,N
1552095755.9,286046998.2,N
1552095775.7,286046997.0,N
1552095795.5,286046996.6,N
1552095815.4,286046996.9,N
1552095835.2,286046999.6,N
1552095855.1,286046998.1,N
1552095856.0,286046998.1,N
1552095875.8,286046998.7,N
1552095895.6,286046998.1,N
1552095915.5,286046999.4,N
1552095935.3,286046998.9,N
1552095955.1,286046998.3,N
1552095975.9,286046999.5,N
1552095995.7,286046999.2,N
1552096015.6,286046999.5,N
1552096035.4,286046998.7,N
1552096055.2,286047002.0,N
1552096075.1,286047002.2,N
1552096076.0,286047002.2,N
1552096095.8,286047002.6,N
1552096115.7,286047003.9,N
1552096135.5,286047003.2,N
1552096155.3,286047001.7,N
1552096175.2,286047002.4,N
1552096195.0,286047002.2,N
1552096195.9,286047002.2,N
1552096215.7,286047003.9,N
1552096235.6,286047003.6,N
1552096255.4,286047004.1,N
1552096275.3,286047004.1,N
1552096295.1,286047003.8,N
1552096296.0,286047003.8,N
1552096315.8,286047001.4,N
1552096335.7,286047003.9,N
1552096355.5,286047005.6,N
1552096375.3,286047005.1,N
1552096395.2,286047005.1,N
1552096415.0,286047004.7,N
1552096415.9,286047004.7,N
1552096435.8,286047007.2,Y
1552096455.6,286047003.9,P
1552096475.4,286047003.4,P
1552096495.3,286047003.3,P
1552096515.1,286047003.5,Y
1552096535.9,286046999.8,P
1552096555.7,286047001.8,N
1552096575.5,286047001.9,N
1552096595.4,286047002.0,N
1552096615.2,286047002.7,N
1552096635.0,286047000.1,N
1552096636.0,286047000.1,N
1552096655.8,286047001.2,N
1552096675.6,286047000.0,N
1552096695.5,286047000.7,N
1552096715.3,286046999.7,N
1552096735.1,286047000.5,N
1552096755.9,286047000.0,N
1552096775.7,286047002.7,N
1552096795.6,286046999.7,N
